RH
72 68 70 68 67 64 70 86 95 64 61 92 86 91 34 40 24 26 29 32 36 44 45 47 49 53 40 33 60 65 83 96 94 63 42 60 60 73 71 93 75 63 86 98
68 69 68 68 64 65 86 92 73 60 70 98 94 42 28 24 27 30 34 44 46 42 55 70 59 62 48 70 75 70 88 90 95 71 63 59 66 54 55 69 81 79 92 98
70 69 68 65 63 66 85 97 94 71 76 75 70 66 52 42 37 40 41 44 42 52 63 56 73 67 57 68 78 61 93 95 87 82 60 63 87 69 53 68 84 94 97 99
69 70 67 63 62 67 92 98 91 66 94 82 67 68 68 58 55 47 47 49 58 62 76 72 70 64 76 68 65 76 100 96 90 83 66 71 75 77 84 93 99 99 96 87
74 70 65 62 65 70 90 96 84 48 88 73 75 72 73 59 56 71 62 74 62 66 79 69 96 84 79 92 90 100 99 97 99 98 88 86 99 84 90 93 84 86 76 80
72 68 65 65 69 75 90 73 57 73 62 59 86 87 67 64 78 64 50 72 80 70 67 84 79 74 74 78 86 90 100 100 95 98 83 80 95 83 73 78 76 70 91 82
70 66 69 72 72 76 90 80 78 91 84 56 51 37 41 55 71 79 63 70 86 62 71 77 71 74 77 74 70 65 100 100 93 81 66 89 90 67 73 85 80 72 74 77
68 69 71 73 73 71 90 88 83 88 93 57 40 42 52 54 71 96 93 79 70 76 87 96 91 91 87 73 67 66 81 90 83 79 95 83 67 68 80 87 95 81 84 78
74 75 75 72 70 72 88 95 84 89 97 88 47 58 52 68 80 72 75 58 76 92 100 99 96 81 91 74 59 46 55 67 79 72 87 92 86 72 61 66 97 84 80 82
79 78 74 72 72 73 88 97 88 87 97 68 66 68 68 58 67 75 69 66 74 72 93 96 94 91 67 90 96 85 76 83 92 92 94 85 85 72 59 85 100 91 83 89
79 78 76 74 73 74 86 96 80 88 96 86 65 65 80 75 75 93 75 83 81 90 92 90 86 98 96 96 76 83 87 97 94 89 89 87 84 65 85 99 96 92 93 96
78 78 79 76 75 75 82 96 86 86 96 90 81 72 71 68 62 78 80 97 83 95 94 91 94 98 96 96 99 69 92 99 93 93 94 95 84 92 91 89 94 95 92 92
81 81 76 76 74 75 79 97 90 88 96 92 89 79 65 56 58 54 80 83 68 77 70 92 94 99 92 98 98 89 86 75 92 92 93 91 90 81 84 91 96 94 93 92
80 80 77 76 74 74 77 97 91 95 88 89 83 43 52 48 46 54 61 63 65 72 82 86 94 98 90 99 86 93 92 88 91 96 92 87 89 93 93 92 93 93 96 96
79 74 73 73 74 75 86 95 94 87 94 89 88 63 51 45 51 54 56 62 71 82 88 90 93 96 96 97 85 93 90 98 98 100 94 92 96 95 91 93 94 94 91 91
78 73 72 75 78 78 96 100 94 88 81 92 97 72 60 53 54 59 61 66 67 78 79 90 84 81 92 89 97 95 96 95 99 95 91 92 96 96 87 93 94 95 90 81
77 76 76 76 81 95 96 98 96 87 75 89 98 88 67 49 56 66 68 61 69 80 84 86 83 88 94 99 98 95 99 100 98 88 82 92 95 98 87 86 87 81 73 71
77 78 78 82 83 82 90 89 81 79 82 91 96 78 83 59 82 86 74 82 80 78 86 86 87 97 98 97 98 98 98 98 95 90 80 86 83 82 73 60 62 71 74 73
77 76 81 93 95 98 95 78 77 92 95 98 95 90 98 86 77 84 89 83 96 85 94 90 85 99 99 98 97 97 96 96 95 74 56 55 59 59 58 61 66 79 80 78
80 89 96 100 98 86 85 96 99 98 96 94 92 82 95 82 94 94 94 92 96 97 92 85 97 97 97 96 96 94 92 78 74 70 68 67 71 71 72 73 72 73 73 70
94 100 100 99 90 97 99 99 99 97 95 91 80 85 96 81 94 93 90 96 95 93 94 91 99 97 91 95 93 65 66 61 60 63 69 68 70 75 77 78 72 69 68 76
92 97 95 97 99 100 95 96 94 95 84 93 85 91 79 88 88 95 90 75 93 92 91 90 98 95 72 72 70 72 70 69 69 67 71 72 71 74 77 77 79 87 88 94
97 99 100 99 99 98 92 98 86 94 93 94 92 96 92 91 83 95 94 82 83 95 96 98 99 80 70 73 73 75 72 71 77 81 82 81 82 82 86 94 98 96 96 97
100 99 99 98 95 88 93 94 94 94 97 93 93 94 95 96 92 90 93 91 94 95 97 98 94 84 83 77 75 88 97 94 95 96 94 95 95 96 96 97 98 96 98 98
99 99 97 99 96 99 100 100 96 96 97 94 95 97 95 95 87 90 87 98 93 92 99 99 92 91 92 96 95 95 95 95 96 96 96 97 97 96 99 98 97 96 98 96
100 99 99 99 90 99 99 100 93 99 95 96 96 97 97 98 97 99 93 95 95 100 99 97 92 94 95 95 94 94 94 95 96 96 96 95 96 96 96 97 96 97 95 97
99 99 99 100 99 99 99 100 91 94 97 99 96 86 77 97 94 88 94 100 100 98 98 95 92 95 95 94 92 94 94 95 95 96 94 96 96 94 96 97 95 93 92 92
Wind_Speed
15 13 11 7 3 2 1 3 3 3 2 2 3 2 2 1 2 5 7 4 7 7 9 13 12 13 11 10 3 5 6 5 8 17 18 7 13 10 12 4 2 4 6 2
16 12 9 6 3 3 1 1 3 1 3 1 2 3 3 3 3 5 7 5 8 13 11 10 6 11 9 8 3 4 4 4 6 10 2 3 4 10 7 4 7 4 2 3
15 12 9 6 3 4 1 1 3 2 1 2 2 5 4 6 8 7 10 12 10 8 10 10 8 11 7 3 5 10 2 7 11 8 6 8 7 18 11 5 5 1 4 9
14 12 9 6 4 3 2 3 2 2 3 1 6 2 1 5 5 3 7 4 10 11 6 15 7 9 7 5 9 2 3 8 12 20 21 15 15 20 16 10 4 3 11 20
15 11 7 5 4 4 1 3 1 2 3 5 3 1 3 5 3 2 6 6 11 11 11 13 13 10 7 6 4 6 4 6 7 21 18 15 6 12 19 13 15 11 13 16
13 10 7 6 4 4 2 3 1 4 5 5 4 5 5 4 6 5 5 7 11 11 10 9 13 11 13 15 14 12 5 4 5 8 20 16 12 18 21 20 21 13 15 9
13 10 8 7 6 6 1 1 1 4 3 4 6 3 5 4 5 6 3 6 6 6 9 15 10 13 15 14 17 11 4 4 2 3 3 8 8 18 23 27 18 16 12 12
12 10 8 7 6 4 2 2 4 3 2 6 2 5 5 6 4 5 4 6 8 2 5 4 6 3 3 7 11 9 11 2 5 3 4 7 13 14 12 10 11 16 15 15
11 9 7 6 4 4 2 2 2 3 2 3 10 6 7 3 4 4 3 9 1 4 1 3 3 3 1 4 7 4 2 6 3 2 6 5 3 21 17 8 7 15 15 16
10 9 8 6 4 4 2 2 4 3 2 3 6 3 2 4 5 3 5 10 7 4 3 3 4 4 8 5 6 8 6 6 8 6 5 5 16 23 15 8 4 11 12 12
12 10 8 6 6 5 2 1 4 3 1 6 3 5 3 5 4 2 7 6 6 5 7 4 4 3 4 2 10 4 7 6 6 5 6 3 22 7 8 5 11 10 11 10
10 10 9 7 6 5 3 2 3 3 1 5 2 7 10 7 5 1 4 2 4 1 3 4 3 2 4 8 4 9 6 5 3 6 4 6 10 12 12 10 9 11 10 11
10 10 10 8 6 5 2 2 2 2 1 4 2 3 6 7 6 4 2 2 4 4 1 2 3 3 4 4 3 3 7 10 4 2 7 10 10 11 11 10 11 10 10 9
12 10 9 7 5 4 3 2 2 1 3 0 5 3 1 2 3 4 4 3 5 3 1 2 1 3 4 3 2 4 4 7 6 7 9 10 10 9 8 10 10 11 9 9
12 10 8 7 4 3 1 1 3 2 2 2 5 9 6 5 4 4 4 2 3 1 3 2 1 1 3 1 4 4 5 3 3 2 5 7 5 7 7 8 10 9 8 11
10 9 8 6 5 3 3 3 2 3 1 2 3 5 4 5 5 5 4 4 3 1 1 3 2 1 3 3 3 3 4 4 2 4 7 11 9 8 8 9 9 9 9 11
9 7 8 6 4 2 1 1 3 5 2 1 3 5 4 3 4 2 1 1 1 2 2 2 1 2 3 3 3 5 5 6 7 9 12 8 2 7 9 10 11 12 12 12
7 9 7 5 8 4 2 2 2 3 1 2 1 4 4 3 1 1 0 1 2 2 2 4 1 2 3 4 6 6 4 5 7 7 7 8 9 10 11 10 10 10 9 9
9 8 8 4 2 2 2 5 3 2 1 1 2 2 2 4 1 1 3 2 2 3 2 3 3 2 3 3 7 5 4 3 5 7 10 9 10 11 11 11 10 10 10 10
10 2 2 1 3 9 5 4 1 1 2 3 3 1 3 1 1 2 2 2 3 2 5 1 4 3 4 7 7 5 3 5 4 8 8 11 11 11 11 11 10 10 9 9
1 2 1 1 11 2 2 2 2 2 3 3 3 4 2 3 2 2 1 2 2 1 3 2 2 3 3 7 5 2 5 6 9 11 11 12 12 11 11 10 11 10 9 7
5 3 3 2 1 2 3 4 2 4 5 2 3 4 4 2 2 3 3 1 2 3 1 0 2 3 10 8 7 7 8 11 12 12 12 11 12 11 11 10 9 7 6 4
2 1 3 3 3 3 4 6 3 2 3 3 2 1 2 3 1 1 2 1 4 0 1 1 2 9 8 8 8 8 10 13 15 14 13 14 13 11 10 8 4 5 5 2
1 3 5 4 4 4 5 4 4 4 4 5 4 1 3 1 3 1 1 3 1 2 1 2 4 9 9 8 8 11 10 11 11 10 9 9 9 7 6 5 4 5 4 3
2 2 4 5 3 3 0 1 2 2 3 4 3 2 3 1 2 3 2 1 3 4 2 3 7 9 10 11 10 10 9 8 8 6 6 7 6 6 5 4 4 5 4 3
2 3 2 0 4 2 1 1 3 2 2 2 2 2 2 2 3 3 5 1 3 1 3 5 9 10 10 10 9 8 7 7 7 6 6 6 6 6 6 4 5 4 5 4
3 1 1 1 1 2 2 2 3 1 4 1 1 2 5 1 1 2 1 1 2 5 5 5 9 11 10 9 9 7 9 8 6 6 5 4 4 6 4 5 5 5 6 6
Wind_Direction
154 146 156 149 144 27 68 254 97 218 106 45 238 165 35 35 308 269 266 266 283 301 313 304 305 296 285 310 91 309 28 273 277 279 269 269 248 212 213 118 257 232 109 10
147 148 142 128 96 50 304 218 129 255 102 94 283 84 267 189 277 341 326 324 337 324 315 308 292 299 308 53 28 357 8 275 318 313 238 235 273 207 206 137 37 317 68 98
141 145 145 137 100 62 82 7 87 17 78 200 348 37 359 354 356 336 356 319 295 326 305 299 284 276 294 16 196 267 243 222 222 239 290 343 320 318 190 119 154 45 51 65
147 153 152 135 80 40 79 32 203 178 198 34 91 89 277 289 327 16 313 306 339 328 300 310 274 325 321 306 297 280 221 260 226 241 252 274 279 287 67 62 57 303 92 58
152 151 139 103 65 1 74 114 74 19 117 120 124 186 280 292 339 358 304 305 320 315 293 287 307 330 329 261 314 335 234 286 291 273 208 223 236 87 85 50 30 69 67 52
147 139 125 101 65 13 359 321 359 100 184 186 132 199 227 242 130 272 297 317 307 293 287 312 282 267 257 253 274 288 256 275 308 93 114 150 80 97 91 81 41 40 45 4
144 139 121 103 73 49 11 315 331 74 238 193 205 110 336 308 159 197 260 289 285 265 335 301 265 245 244 247 262 253 251 266 275 274 4 55 88 60 88 79 49 38 46 25
142 138 119 100 83 36 11 303 53 30 333 334 54 51 9 334 194 204 201 256 234 335 331 324 309 294 334 251 233 201 198 271 284 101 53 150 35 10 345 351 55 35 31 27
140 140 122 113 103 70 334 3 38 60 89 9 335 347 15 360 326 344 270 334 127 106 272 261 264 24 205 348 338 23 307 251 179 339 63 62 15 326 314 296 56 35 36 34
142 142 142 130 112 92 43 0 23 42 52 284 354 8 294 304 337 317 320 340 342 37 331 325 348 6 357 16 11 344 359 2 26 11 89 77 352 320 315 66 21 53 51 51
144 145 137 132 117 102 80 338 44 79 3 283 309 11 345 338 21 29 308 358 8 359 21 4 335 316 360 48 51 36 35 348 22 358 62 13 360 12 61 70 60 68 65 63
147 149 144 142 127 99 115 74 45 76 121 255 13 253 252 234 250 152 338 280 4 262 25 358 306 323 339 358 38 15 41 357 53 18 86 75 44 57 50 51 66 57 67 78
143 145 151 148 142 118 84 54 84 46 265 301 274 205 249 207 212 163 126 300 355 341 297 253 287 324 338 9 45 95 343 16 98 120 59 54 47 65 61 57 61 63 71 77
148 153 154 158 154 149 147 123 217 276 267 329 285 354 70 121 137 159 182 230 315 280 266 228 272 321 32 16 89 60 344 341 24 80 112 100 58 53 54 84 83 73 63 70
150 154 162 166 169 157 192 228 222 234 318 309 295 303 263 176 172 218 218 226 276 6 9 350 333 338 355 54 79 47 1 354 0 100 90 93 75 75 68 73 74 80 85 80
152 162 163 175 149 142 82 6 264 204 214 345 332 300 225 181 198 233 198 224 241 109 146 251 263 149 86 49 75 75 36 34 10 103 78 98 105 91 83 84 82 79 78 78
149 170 152 138 136 107 80 38 265 326 105 264 311 313 317 138 190 217 187 239 290 115 306 280 201 38 68 51 97 124 97 74 100 124 127 124 184 121 110 92 89 86 78 71
147 135 127 116 103 69 333 240 292 144 231 258 324 289 307 173 208 335 28 124 33 332 243 315 97 50 81 85 111 108 94 89 88 93 90 115 135 133 122 115 105 98 91 84
148 141 133 67 69 141 222 231 114 57 176 301 171 251 285 293 238 141 6 92 20 239 211 256 91 58 51 112 136 134 128 113 146 155 133 133 116 112 113 111 105 94 80 70
154 114 103 162 209 143 79 29 61 295 237 222 235 255 262 143 359 281 124 181 219 189 236 99 72 79 80 86 89 97 165 184 235 121 121 99 92 92 85 83 82 85 82 79
104 141 138 275 153 99 168 130 196 198 239 221 225 203 216 295 125 232 100 218 301 341 267 136 133 117 124 122 128 205 72 102 89 83 91 106 114 113 105 92 88 89 89 88
167 109 82 63 148 154 159 184 236 206 234 171 167 225 194 279 30 82 305 292 39 258 213 311 125 108 131 144 112 80 73 77 81 85 91 96 99 101 100 99 95 88 89 82
100 169 136 182 168 178 189 188 221 192 218 166 119 330 178 9 58 30 55 178 236 297 308 167 71 139 132 119 107 95 92 94 91 86 82 83 86 86 102 109 107 109 88 80
200 174 154 217 169 230 190 194 176 238 95 115 111 89 130 224 65 55 232 242 9 265 259 151 149 143 133 127 111 97 92 93 94 92 92 95 101 100 93 102 115 106 91 52
257 205 209 197 199 61 177 280 80 7 114 90 46 6 115 244 132 212 236 305 253 204 109 111 130 122 114 113 115 117 114 112 107 109 111 113 108 111 106 117 124 120 117 110
256 236 221 117 158 128 35 62 151 292 110 40 44 143 74 231 173 173 219 212 235 134 91 116 125 121 124 125 124 123 124 119 118 119 127 129 136 145 157 142 142 164 160 177
271 185 12 352 46 129 152 168 184 167 82 201 166 163 216 344 208 242 181 197 95 127 117 127 136 134 134 129 128 129 128 127 139 139 136 160 157 133 132 170 215 202 202 203